Wind_Speed
44 45 45 45 45 44 43 41 40 39 39 38 38 37 38 39 40 42 44 45 47 48 49 49 49 49 49 49 48 48 48 48 48 49 49 48 47 46 46 45 45 46 47 47 48 48 49 49 50 50 50 51 52 53 55 57 57 58 58 58 58 58 58 56 54 52 50 50 50 50 49 48 46 45 44 43 42 40 39 37 36 35 34 32 31 30
49 50 51 51 51 51 52 53 52 51 50 48 47 45 43 42 41 41 41 42 44 45 47 49 50 50 51 51 50 50 49 49 49 49 49 49 48 47 47 46 46 46 46 46 47 48 48 48 49 49 49 51 52 53 54 56 57 58 58 58 58 59 59 57 55 52 52 52 52 51 50 48 47 45 44 44 43 41 40 38 38 37 35 33 32 30
49 49 49 49 48 47 48 50 52 52 51 51 51 51 51 50 49 47 45 44 43 43 44 45 47 49 51 51 51 51 50 49 49 49 49 49 48 48 48 47 47 47 46 46 46 47 47 47 47 47 48 50 52 53 53 54 55 57 57 58 58 59 59 58 55 53 52 53 53 52 50 48 47 45 44 44 43 42 40 40 40 39 36 35 33 30
46 45 45 44 43 42 42 43 44 45 45 46 48 50 51 52 53 54 53 51 49 47 46 45 45 46 48 50 51 52 51 49 48 48 48 48 48 48 48 48 48 48 48 47 47 47 47 47 46 46 46 48 51 53 53 53 54 55 57 58 58 59 59 59 56 54 53 54 54 52 50 48 46 45 44 44 43 42 41 41 41 40 37 36 34 31
43 42 41 40 39 39 41 41 41 41 42 44 46 48 49 50 52 53 54 55 55 54 52 50 48 47 47 48 49 50 51 51 50 48 48 47 47 47 47 47 48 49 49 48 48 47 47 47 46 45 44 46 49 53 54 53 53 54 56 57 58 58 59 59 57 55 54 54 54 52 50 47 45 44 44 43 43 42 42 43 42 41 38 37 35 31
41 41 41 40 39 39 41 41 42 41 42 43 44 45 45 46 47 47 49 51 52 54 56 56 54 52 50 49 48 49 50 51 51 51 49 48 47 47 47 47 47 48 49 49 49 48 48 48 47 45 44 45 48 52 54 54 54 54 55 57 57 58 58 59 59 57 54 54 54 52 49 46 44 44 44 43 42 42 42 43 43 41 39 38 36 32
43 44 43 41 41 41 41 41 41 40 38 39 39 40 40 41 41 42 43 44 45 47 50 53 55 55 54 52 51 49 49 51 52 52 52 51 50 49 48 48 47 48 48 49 49 49 49 49 48 46 45 45 47 50 54 56 55 54 55 56 57 58 58 59 59 58 56 55 54 52 49 46 44 44 44 43 42 41 42 44 44 42 39 39 36 32
42 43 43 42 42 41 40 40 39 37 35 34 35 35 36 36 37 37 39 39 40 42 43 47 50 53 55 55 53 51 50 50 51 52 53 52 52 51 50 49 49 48 48 49 49 49 49 49 49 48 46 46 47 49 52 55 56 56 56 56 57 58 58 58 58 58 57 55 54 52 49 46 45 44 44 43 42 41 42 44 45 43 40 39 36 32
38 40 41 41 40 38 38 39 39 38 35 33 32 32 33 34 35 35 36 37 38 39 40 41 43 47 50 53 54 53 52 51 51 52 52 53 53 53 52 51 50 50 49 49 49 50 50 50 49 49 48 47 47 48 50 53 55 56 56 56 57 57 57 57 58 58 57 56 55 53 50 47 45 45 44 43 42 42 43 45 46 45 42 39 36 33
36 37 38 40 38 36 35 38 39 38 35 33 32 32 32 32 33 35 35 36 36 37 36 38 39 41 43 46 49 51 52 52 52 52 52 53 54 54 54 53 52 51 50 49 50 50 50 50 49 49 48 47 47 47 47 49 52 54 55 55 56 57 58 58 58 58 58 57 56 53 50 48 46 46 45 44 43 43 44 45 46 46 44 41 38 36
35 35 35 36 36 34 34 35 36 36 35 35 35 34 33 32 32 33 34 35 36 35 34 36 37 38 39 40 43 45 46 48 50 52 52 52 53 54 55 55 54 53 51 50 49 50 50 50 49 49 49 48 48 47 47 47 49 51 52 53 54 56 58 58 58 58 59 58 57 54 51 48 47 46 46 45 45 45 45 46 47 47 46 43 41 39
33 33 32 32 33 34 34 34 35 35 34 34 34 34 33 32 31 30 32 33 34 33 33 34 35 37 38 38 39 39 40 42 44 47 50 51 52 53 54 55 55 54 53 50 49 50 50 50 50 49 49 49 48 48 47 46 47 48 50 52 54 56 58 59 59 59 59 59 57 55 52 49 47 46 47 47 47 47 46 47 47 47 46 44 42 41
34 33 33 33 33 33 33 34 34 33 33 32 31 31 31 30 29 29 30 31 32 32 33 34 35 37 37 38 38 39 39 41 43 46 48 50 51 52 53 54 55 55 54 52 50 50 50 50 50 50 50 49 49 48 47 46 46 47 50 52 54 56 58 59 60 60 59 59 58 55 53 50 48 48 49 49 49 48 48 48 48 48 46 44 43 42
35 34 33 34 33 33 33 33 33 33 32 32 31 31 31 30 29 29 30 31 32 32 33 35 36 38 38 39 39 39 40 40 42 45 47 48 49 50 52 53 54 54 53 52 51 50 49 50 51 51 51 51 50 49 47 45 46 48 50 53 55 57 58 59 60 61 60 60 59 57 55 54 52 50 51 52 51 50 49 49 48 48 46 44 43 42
34 34 34 35 34 33 32 32 33 34 34 33 32 32 32 31 30 30 30 31 32 32 32 34 36 38 38 39 38 38 38 39 40 42 45 48 49 49 50 50 51 51 51 51 50 50 49 49 50 51 52 52 52 50 48 46 47 49 52 53 55 57 58 59 60 61 61 61 60 59 59 58 55 53 52 53 53 52 51 49 49 48 47 45 43 42
35 35 35 35 35 34 33 33 33 34 34 33 32 32 32 31 31 30 30 30 31 31 31 31 33 34 35 36 35 35 36 37 39 42 44 47 48 48 49 48 49 50 51 51 50 49 49 49 50 51 52 53 53 51 49 48 49 52 53 53 55 57 58 58 60 62 63 62 61 61 61 59 56 53 52 54 54 53 51 50 49 48 47 45 44 43
36 35 36 36 36 35 35 34 34 34 34 33 33 32 31 31 30 30 29 29 29 29 29 29 30 31 32 32 31 31 31 33 36 39 42 45 47 48 48 47 47 49 51 52 51 51 50 50 50 50 51 52 53 51 50 49 50 52 52 52 54 57 59 60 62 63 64 63 62 62 62 59 55 53 52 54 54 53 51 50 50 49 48 47 45 44
37 37 37 37 37 36 36 35 35 34 34 32 31 31 30 30 30 30 30 30 29 29 30 29 30 30 30 30 29 27 26 28 31 34 37 41 44 46 47 46 46 48 49 49 50 50 49 50 50 50 51 51 51 51 50 50 51 52 51 51 52 56 60 62 63 64 64 64 64 63 62 58 55 53 54 55 54 53 51 51 51 50 49 48 47 46
40 38 38 39 39 39 38 37 36 34 34 32 31 31 31 31 30 30 30 30 30 31 31 31 32 32 31 31 30 29 27 27 29 31 33 37 41 44 45 45 45 45 46 48 49 49 48 48 49 49 50 50 50 50 50 51 52 52 52 50 50 53 59 62 63 64 64 64 65 64 62 58 55 54 55 56 55 53 52 52 51 51 50 50 49 49
42 41 40 41 41 41 40 40 39 38 36 35 34 33 34 34 33 33 33 32 33 33 33 33 34 34 33 34 34 33 32 31 30 32 33 36 39 42 44 45 43 42 45 46 48 49 48 48 48 49 49 49 49 50 52 53 53 53 53 52 51 52 55 59 62 63 63 65 65 64 61 58 55 55 57 58 57 54 53 52 51 51 51 51 51 50
44 44 44 42 42 42 41 42 41 40 39 38 37 37 38 37 36 36 35 34 34 34 33 33 34 34 34 34 35 36 37 36 35 36 37 36 38 40 42 44 44 43 43 44 46 48 48 48 48 48 48 48 50 52 54 54 54 53 54 54 52 51 54 58 62 63 64 66 66 64 61 58 56 56 58 60 58 55 53 52 51 50 50 51 51 51
47 46 46 45 45 44 44 45 46 45 44 42 41 41 40 38 38 37 36 36 35 35 35 34 34 35 35 35 37 40 42 40 40 39 40 40 40 41 41 42 43 44 42 42 43 45 46 47 47 48 48 48 51 53 54 53 51 51 52 53 52 51 53 59 63 64 65 67 66 64 61 58 56 57 59 61 60 56 53 51 51 51 51 51 52 52
47 49 49 49 48 48 48 48 49 48 47 45 44 43 42 41 40 39 39 38 37 37 37 37 37 38 38 39 40 41 42 41 40 39 39 41 41 41 41 40 41 42 42 41 41 43 45 46 47 47 48 49 51 51 50 48 47 47 48 50 50 50 53 58 63 65 66 67 66 63 61 58 57 57 59 61 60 56 53 52 52 53 53 53 53 53
46 48 49 49 49 49 49 49 49 48 46 45 44 44 44 43 42 42 41 40 40 40 40 40 40 41 41 41 41 41 41 38 36 35 37 40 41 41 40 40 40 40 40 39 40 42 44 46 47 47 49 50 51 50 47 46 44 44 44 46 48 49 51 56 61 64 65 66 64 62 60 59 57 57 59 60 60 57 53 53 54 55 55 56 56 55
46 47 48 49 49 49 49 48 48 47 45 44 44 44 44 43 43 43 42 42 41 41 41 41 41 42 41 41 40 39 39 37 34 33 34 37 40 42 42 41 41 41 40 39 39 41 43 45 46 47 49 51 52 51 50 48 46 45 44 45 46 47 49 53 57 60 63 64 63 61 60 58 56 56 57 58 59 56 54 54 55 55 56 57 57 56
46 47 48 49 49 49 49 48 48 47 47 47 46 45 45 44 43 42 43 43 42 40 40 40 41 41 40 38 38 39 38 35 33 32 33 35 38 41 42 42 41 41 42 40 39 40 42 43 45 46 49 51 53 54 54 52 50 48 46 45 45 46 48 49 52 55 59 61 62 60 58 56 54 53 53 55 56 56 55 55 55 56 56 57 57 57
45 46 47 48 48 49 49 50 50 50 49 49 48 48 47 46 45 45 45 44 41 39 38 38 39 40 39 38 38 38 37 34 32 32 32 34 37 40 41 40 40 41 42 41 41 41 41 43 45 47 48 51 53 54 55 54 53 51 49 47 47 47 47 47 48 50 55 58 60 59 57 54 52 50 50 51 54 56 56 56 56 56 57 58 58 57
43 44 45 46 47 48 48 49 50 50 50 50 50 49 48 49 49 49 49 46 43 40 39 39 38 38 38 38 38 38 37 35 34 32 31 32 36 39 41 39 39 40 41 43 44 43 43 43 44 46 48 49 51 52 53 53 52 51 50 48 47 47 47 46 46 48 51 55 57 58 56 54 52 51 51 51 53 56 58 57 57 58 58 59 59 58
43 43 43 44 45 46 47 48 49 49 50 50 50 49 49 50 52 54 53 50 46 43 42 42 41 40 40 40 39 38 38 38 36 33 30 32 36 40 41 39 39 39 40 43 45 45 44 44 44 44 45 47 49 51 51 51 51 50 50 48 46 45 45 45 45 46 49 52 55 57 57 54 53 54 55 55 56 58 60 59 59 59 60 60 60 59
45 45 45 45 45 45 46 46 47 48 48 48 48 48 48 50 52 55 55 52 49 46 45 44 43 43 42 40 39 39 40 39 37 33 29 31 35 38 39 39 40 40 40 42 41 40 41 44 45 44 44 44 46 48 50 50 50 50 50 48 46 44 43 44 45 46 47 50 54 57 58 57 57 57 58 57 58 60 61 61 60 61 61 61 61 59
47 47 46 46 45 44 44 44 45 45 46 46 46 46 47 48 50 52 51 51 50 49 47 46 45 44 42 39 38 38 40 39 36 32 28 31 35 37 38 38 39 40 42 42 37 33 33 38 43 45 44 44 45 46 48 50 51 51 50 49 47 45 44 44 45 46 47 48 52 55 57 58 59 59 59 58 59 61 63 63 62 61 62 61 61 59
47 45 44 44 43 43 42 43 43 43 43 43 44 44 45 46 48 49 49 50 50 49 48 47 46 46 44 42 41 41 41 39 36 31 27 30 34 37 38 37 37 40 42 44 40 34 29 32 39 44 44 44 44 45 48 50 51 51 51 51 50 48 47 46 46 46 47 49 51 54 56 57 58 59 58 58 60 63 65 64 62 62 62 61 60 59
44 44 44 43 42 42 43 43 42 42 42 42 42 43 44 45 46 47 48 49 49 49 48 47 46 46 46 45 44 45 45 44 40 34 29 30 33 36 38 37 37 38 41 44 44 40 33 32 36 42 44 45 45 45 47 49 51 51 51 51 51 50 49 49 49 50 50 52 55 56 56 57 58 58 57 56 58 62 65 64 63 62 62 62 61 59
41 41 41 40 39 39 40 40 41 41 41 42 42 43 44 44 44 45 46 46 47 48 49 48 48 48 47 46 45 46 47 47 43 38 33 33 35 37 38 38 38 38 40 43 45 42 36 34 35 39 42 44 45 47 48 50 51 51 51 51 51 51 51 51 52 54 56 58 60 59 58 57 57 57 56 55 56 60 63 63 62 62 62 62 61 59
40 39 39 38 37 37 38 38 38 39 40 40 40 41 42 43 43 44 44 45 46 47 48 49 49 49 48 47 46 46 47 47 44 39 36 36 37 38 40 41 40 40 41 44 45 43 38 34 34 37 40 43 45 46 48 51 52 52 51 50 50 51 51 52 54 57 60 61 61 59 58 57 58 57 56 54 55 57 60 62 61 61 61 62 62 60
39 38 38 37 36 37 37 37 37 37 38 38 38 39 40 40 42 43 44 45 46 47 48 49 50 50 50 50 50 48 47 46 43 39 37 37 38 40 42 43 43 42 42 43 45 44 40 36 34 35 38 41 44 45 45 49 52 53 52 51 50 50 52 53 56 59 61 61 59 57 56 57 58 58 57 55 54 55 57 59 60 60 60 61 61 60
38 38 37 37 36 36 37 37 37 37 37 37 38 38 39 40 41 41 42 43 45 46 47 49 50 50 51 53 53 52 50 49 45 41 38 38 39 41 43 44 44 44 43 44 44 43 42 38 35 34 35 40 43 45 45 47 49 51 52 51 51 52 54 56 57 58 58 56 55 55 57 59 60 59 58 56 55 54 54 56 57 58 59 59 59 59
39 38 37 37 36 36 37 37 37 37 37 37 38 39 39 40 41 41 42 43 44 45 46 48 49 51 52 53 54 55 55 53 49 45 43 41 41 42 44 45 45 46 46 46 45 44 44 42 38 34 34 37 42 45 46 46 45 46 50 51 52 53 55 57 56 54 51 49 50 53 58 61 62 61 60 57 55 54 54 56 57 58 58 58 58 58
39 39 38 38 38 37 38 38 38 38 38 39 39 39 40 41 42 42 43 43 44 44 46 47 49 50 52 53 54 55 56 55 53 50 48 46 45 45 45 45 46 47 48 47 45 44 45 46 43 38 35 36 38 42 45 45 44 45 47 49 50 52 54 54 51 46 43 43 46 52 60 64 65 64 61 59 56 55 56 57 59 59 59 58 58 57
41 40 40 40 40 39 39 39 40 40 40 40 40 41 41 42 42 43 44 44 43 44 45 46 48 50 51 51 53 54 55 55 55 54 52 51 50 49 49 48 47 48 49 48 45 44 44 46 46 44 40 37 38 39 41 43 44 45 46 46 48 50 51 50 46 41 39 41 46 53 61 66 67 65 63 60 57 56 57 59 60 60 60 60 60 59
41 41 42 42 42 41 41 41 41 41 41 41 42 42 42 43 43 43 43 43 43 43 44 45 47 49 50 52 53 54 54 55 56 56 55 55 54 54 52 51 50 50 50 49 45 42 43 45 46 45 42 40 40 40 41 42 44 45 47 48 48 49 50 48 44 40 39 42 47 54 62 66 66 65 62 59 57 55 56 58 60 61 61 62 62 62
41 42 43 43 43 43 43 43 43 43 42 42 42 43 43 43 43 43 42 41 42 42 42 43 44 46 48 50 52 53 54 55 55 55 55 56 56 56 55 53 52 52 51 49 46 44 43 45 46 46 44 42 42 42 42 43 45 46 47 49 50 50 49 48 45 42 41 45 51 59 64 66 65 63 60 58 55 54 55 57 59 61 62 62 63 63
44 44 45 45 45 45 45 45 44 44 43 43 43 42 42 42 42 42 42 42 42 41 39 39 40 42 44 47 49 50 51 52 52 52 53 54 55 56 55 54 54 53 51 49 48 46 45 45 46 46 46 45 45 44 44 45 46 47 49 50 51 51 48 49 48 46 45 48 54 60 63 62 61 58 56 54 53 53 54 56 59 61 62 63 63 63
45 46 46 46 46 46 45 45 44 44 43 42 42 42 42 41 41 41 41 42 42 41 40 39 39 40 41 44 46 47 48 49 49 49 50 51 53 53 52 52 54 54 51 50 50 48 45 44 44 45 46 46 47 47 47 46 47 48 50 52 53 53 52 51 51 51 50 52 56 59 59 58 55 53 51 51 51 52 54 57 59 61 62 63 63 64
46 47 47 47 46 46 45 44 44 44 43 42 42 42 42 41 40 40 40 41 41 41 40 40 38 38 39 39 41 43 43 44 45 46 47 49 49 49 49 51 53 54 52 52 52 51 47 44 43 44 46 47 47 48 48 48 48 49 51 53 54 55 55 54 53 53 53 55 56 57 56 55 53 51 50 51 52 53 55 58 60 63 64 64 65 65
47 47 47 47 46 46 45 45 45 44 43 42 42 41 41 40 40 39 40 40 40 40 40 40 38 38 38 38 38 39 41 42 43 44 45 47 48 47 48 50 53 55 53 52 53 52 49 46 45 45 46 46 48 49 50 50 50 50 52 53 54 55 56 56 55 54 53 55 56 56 56 55 54 53 52 52 53 55 57 59 62 64 65 66 66 66
48 48 47 47 47 46 46 46 45 43 42 42 41 41 41 40 39 39 39 39 39 39 39 39 39 39 39 38 38 39 39 39 40 42 44 46 47 48 49 52 54 56 54 53 52 50 48 46 46 46 47 47 48 48 50 51 52 52 53 54 54 55 55 55 55 53 53 54 56 57 57 56 56 55 55 55 55 56 58 60 63 64 66 66 67 67
49 48 48 48 47 47 46 45 44 43 42 41 41 41 40 40 38 37 37 37 38 38 38 38 38 39 39 39 39 39 40 39 38 39 42 45 47 49 51 54 55 56 55 54 52 50 47 47 47 48 49 49 49 49 49 51 52 53 54 55 55 55 55 54 53 52 52 54 56 58 59 58 58 58 58 57 57 58 60 62 63 65 65 66 67 67
49 49 48 48 47 46 46 45 44 43 42 42 42 42 41 40 38 36 36 36 36 37 37 37 38 38 38 38 38 39 40 41 40 39 41 44 46 49 51 54 56 56 55 54 51 49 48 48 48 48 49 51 51 51 50 50 51 53 54 56 56 55 54 53 51 51 52 54 56 58 60 60 60 60 60 58 58 59 61 62 64 65 65 66 66 66
50 49 48 47 46 46 45 44 44 43 43 43 43 42 41 40 38 36 35 35 35 36 36 37 37 37 36 36 36 38 40 41 41 41 42 44 46 49 52 55 57 56 55 52 49 46 46 46 46 47 49 50 51 51 51 51 51 52 53 55 56 55 53 52 50 51 52 54 57 59 60 60 60 61 60 59 59 60 62 63 64 65 65 65 65 65
50 49 48 47 46 45 45 44 44 44 44 44 43 42 41 40 38 36 35 34 34 35 36 36 36 36 36 35 36 38 40 40 40 42 43 45 47 50 53 56 57 56 53 49 45 43 43 42 42 43 46 48 49 50 51 52 52 52 52 53 54 54 53 51 51 51 52 55 57 59 59 60 60 60 60 59 59 60 62 63 64 65 65 65 65 64
Wind_Direction
278 278 277 276 278 279 280 279 280 282 282 281 279 277 275 273 271 269 268 267 267 266 267 267 268 268 268 267 265 263 262 262 262 262 262 262 262 261 261 261 260 260 260 259 257 255 253 252 251 251 251 251 250 248 246 244 242 240 238 236 235 235 236 237 236 231 223 217 215 214 213 212 212 212 212 211 211 211 212 215 218 223 230 233 235 234
279 279 278 278 278 278 278 277 277 278 279 280 281 280 280 280 278 276 273 270 267 265 264 265 265 267 268 268 268 267 265 265 264 264 263 263 262 262 261 260 260 259 259 259 258 256 255 253 252 251 251 251 249 248 245 243 241 239 238 236 235 235 236 236 236 231 222 217 215 214 213 212 212 212 211 210 210 211 213 215 218 222 228 232 233 232
283 283 282 282 282 282 281 280 279 278 278 278 278 278 278 278 278 278 277 275 272 269 266 264 264 264 265 266 268 268 268 267 267 266 265 264 263 262 262 261 260 258 258 257 257 257 256 255 253 253 252 251 250 247 245 242 240 238 237 236 235 235 235 235 234 230 222 217 215 213 212 211 211 210 211 210 210 212 213 215 217 221 226 230 231 230
284 285 285 285 285 284 282 282 281 280 279 278 277 276 276 276 276 276 275 275 274 273 271 269 266 264 263 263 265 266 268 269 269 268 267 266 265 264 262 261 260 259 257 256 256 256 256 255 254 253 252 251 250 247 244 241 239 238 237 236 236 235 234 234 233 229 222 217 214 212 211 210 210 210 211 211 211 212 213 214 217 221 226 229 228 227
286 286 286 286 286 284 282 281 280 279 278 277 276 276 276 275 275 275 275 274 274 273 272 271 270 267 265 263 262 263 265 268 270 271 270 269 267 266 264 263 261 260 258 256 255 255 255 255 255 253 252 250 249 247 243 240 239 237 236 236 236 235 234 233 232 229 223 217 214 212 210 210 210 211 211 212 212 212 213 215 218 222 226 227 226 224
287 286 286 286 285 284 283 282 281 280 279 279 278 277 277 276 276 276 275 275 274 273 272 271 270 269 267 265 263 261 261 264 267 270 272 272 271 269 267 265 263 261 260 258 256 254 254 254 254 253 251 249 248 246 243 240 238 237 236 235 235 235 234 233 232 229 224 218 214 211 210 211 211 211 211 211 211 213 215 217 221 224 227 227 225 223
288 288 288 287 286 285 285 284 284 283 282 281 281 280 279 278 277 276 275 275 274 274 273 272 271 269 268 267 265 263 261 261 263 266 269 271 272 271 270 268 265 263 261 259 257 255 253 253 253 252 250 248 246 245 243 240 238 237 235 234 233 234 234 233 232 230 226 220 216 212 212 213 213 213 211 210 211 214 217 220 224 226 228 227 225 223
288 289 289 288 288 288 287 285 284 284 282 282 281 281 281 279 278 276 275 275 274 274 274 274 273 271 269 267 265 264 263 261 260 261 264 268 270 271 271 269 267 265 263 261 259 257 254 252 251 251 250 248 246 244 243 241 239 237 235 233 232 231 232 233 233 231 228 223 219 216 214 215 215 214 212 212 213 216 219 223 225 227 228 228 226 225
286 288 289 288 288 288 287 286 285 283 282 281 279 279 280 280 279 277 276 275 273 273 273 273 273 272 271 268 266 264 262 261 260 260 261 264 267 269 270 270 269 266 264 262 260 258 255 252 250 249 248 247 246 244 243 242 240 238 236 233 230 228 229 231 233 232 229 225 221 218 216 216 217 217 216 215 217 219 221 224 226 227 227 228 228 227
285 285 287 288 287 286 285 285 285 284 283 280 277 276 276 277 278 278 277 275 273 272 270 270 269 269 270 269 267 265 263 261 260 260 260 262 264 267 269 270 270 268 266 264 261 259 257 253 250 248 247 247 246 244 243 243 242 240 237 234 230 227 226 228 231 232 230 226 222 219 218 218 219 219 219 219 220 221 222 225 227 228 228 228 228 228
283 283 284 285 285 284 282 282 282 283 282 281 279 276 274 273 274 275 276 276 275 273 271 269 268 268 268 267 267 266 263 262 261 260 261 261 263 265 267 268 269 269 267 265 262 260 257 255 251 248 246 245 245 244 244 244 243 242 239 235 232 228 227 228 231 232 230 226 223 221 220 219 220 221 222 222 222 222 222 225 227 228 228 228 229 229
282 282 282 282 283 283 281 281 281 282 282 281 280 278 276 273 272 272 273 274 275 274 273 271 269 268 267 266 266 264 262 261 260 260 261 261 262 263 263 264 266 267 267 266 263 260 257 254 251 248 246 245 244 244 243 244 244 243 239 236 233 231 229 230 231 231 228 225 223 221 220 220 221 223 224 224 223 222 222 224 226 228 229 229 230 230
280 281 281 281 280 280 280 281 281 281 280 278 277 276 276 275 274 273 272 273 273 274 274 274 272 270 269 268 267 265 263 261 260 262 262 262 262 261 260 260 261 263 264 264 263 260 256 253 250 247 245 243 242 242 242 243 243 242 239 236 234 233 232 232 231 228 224 222 221 220 218 217 219 222 224 224 222 221 221 223 225 227 228 229 229 230
280 280 279 279 278 278 278 278 279 278 277 275 274 274 275 276 276 275 274 273 273 274 274 274 274 273 271 270 269 267 265 262 262 263 263 262 260 259 257 257 258 260 261 262 262 260 256 252 249 246 244 242 240 240 240 240 241 241 240 237 235 233 233 233 231 227 222 221 220 218 216 216 218 222 224 224 221 219 219 221 224 226 227 227 228 229
279 279 278 277 276 276 275 275 275 275 275 274 274 275 276 276 275 275 274 274 274 275 276 275 275 274 272 270 269 269 268 266 264 263 263 262 259 257 255 254 254 256 258 259 259 259 257 253 249 246 243 240 238 237 236 237 238 240 241 239 236 234 233 233 230 225 221 220 219 217 216 217 219 222 224 223 220 217 218 220 222 224 225 226 226 227
279 278 276 276 275 274 273 273 273 273 274 275 275 275 275 275 275 274 274 274 275 276 277 277 277 276 274 271 268 267 268 269 268 266 263 262 260 256 254 252 252 254 256 256 257 257 256 254 251 248 244 241 237 234 233 233 236 239 241 242 239 236 234 233 230 225 221 219 218 216 216 218 220 223 224 222 219 217 218 219 221 222 224 224 224 226
278 276 275 274 274 273 272 273 272 272 273 274 274 274 273 273 273 273 273 273 274 275 274 274 275 275 275 274 271 269 268 269 269 268 264 263 260 258 255 252 251 252 254 255 255 254 254 252 251 249 246 242 238 234 232 231 233 236 240 242 241 239 236 235 231 225 220 218 216 216 217 219 220 222 223 221 219 218 218 219 219 221 222 223 224 226
276 275 274 273 272 272 272 272 272 272 272 272 273 273 272 272 272 272 271 272 272 272 272 272 271 271 273 273 273 272 271 271 270 268 265 263 262 260 258 254 251 250 251 251 251 250 249 249 248 247 246 243 239 234 232 230 231 233 237 241 241 239 236 234 229 223 219 217 216 216 217 218 219 221 223 220 219 218 219 218 218 219 220 221 223 226
275 273 272 271 271 271 271 270 270 270 270 271 272 273 273 272 271 271 270 270 269 269 270 270 270 270 271 271 272 272 272 275 276 274 269 265 264 263 260 255 251 248 247 247 248 247 245 245 246 247 246 244 240 236 233 231 230 231 234 239 242 240 234 229 223 219 217 216 215 215 217 218 219 221 222 220 219 219 219 218 217 217 218 220 223 226
274 273 271 270 270 270 270 269 268 268 268 268 269 270 271 271 271 270 269 269 268 268 268 268 268 268 269 270 271 270 270 273 279 282 277 271 267 265 262 257 252 247 244 243 245 246 246 245 246 247 247 246 244 240 235 231 229 230 233 238 242 242 236 228 222 218 216 214 215 216 217 218 219 220 221 219 218 218 218 216 215 215 216 219 222 225
273 272 270 269 269 268 268 267 267 266 266 267 267 267 268 269 270 269 268 268 268 268 267 266 266 266 268 270 271 269 267 269 277 285 285 281 275 269 265 260 255 249 244 240 241 243 244 245 245 246 247 247 246 242 235 230 228 230 233 237 241 243 239 230 223 218 215 214 215 215 217 217 218 219 219 218 217 217 216 214 213 213 215 218 222 225
271 271 270 270 269 267 267 267 267 267 267 266 266 266 266 267 267 267 267 267 267 267 266 266 266 267 268 269 270 269 267 266 270 277 284 285 282 276 271 265 259 253 246 240 237 237 240 241 243 244 245 245 242 237 231 227 227 230 234 236 240 242 240 232 224 218 215 214 215 216 216 216 217 218 219 218 217 216 215 212 212 213 215 218 221 225
271 272 274 274 272 270 270 270 270 270 269 267 266 265 265 265 265 265 266 266 266 266 266 266 267 268 268 269 269 270 270 268 267 270 275 278 278 276 274 271 264 257 249 241 235 234 236 239 240 240 241 240 236 230 226 226 228 231 235 237 240 242 240 234 226 219 216 215 215 216 216 215 216 217 219 219 218 217 214 212 211 213 216 218 221 224
274 274 275 275 275 274 273 272 272 271 270 268 267 266 266 266 265 266 267 267 267 267 267 268 269 269 268 268 268 268 268 267 266 266 267 269 270 271 271 270 267 261 253 244 236 233 233 236 237 237 237 235 232 229 228 230 231 233 235 237 238 240 240 236 229 223 218 216 216 216 215 214 215 217 219 220 219 217 214 211 212 214 216 218 221 223
273 273 272 273 273 273 273 272 271 271 270 269 268 268 268 268 268 269 269 269 268 267 268 267 267 266 266 266 266 265 265 264 262 261 262 264 266 267 268 267 266 262 257 249 240 235 233 232 232 232 233 233 233 233 235 235 235 234 234 235 236 237 239 238 234 228 222 219 217 216 214 214 215 218 220 220 219 217 214 212 213 215 217 219 221 223
274 272 272 271 271 270 270 269 269 268 268 268 267 267 267 268 268 268 268 266 265 264 263 262 262 262 263 263 263 263 263 262 260 258 258 261 263 265 265 264 263 262 259 253 245 238 233 232 231 231 232 233 235 237 238 237 236 234 233 234 234 235 236 238 238 234 228 222 218 215 214 214 216 218 220 221 220 218 215 213 213 215 217 218 220 222
276 275 273 272 271 269 269 268 267 267 266 265 265 265 265 265 265 264 262 262 261 261 260 258 258 260 261 261 260 261 261 261 259 257 256 258 260 262 262 261 260 259 258 255 250 243 236 233 232 232 234 235 237 238 239 238 236 234 232 233 233 234 234 236 239 238 233 226 220 216 215 215 216 218 220 222 222 220 217 214 213 214 216 217 219 221
281 278 276 275 273 271 270 269 268 267 266 265 264 263 262 262 261 261 260 260 260 260 259 258 258 259 261 260 260 261 261 260 258 256 255 256 257 259 259 259 258 256 255 255 252 247 240 235 233 233 234 235 236 237 238 238 236 233 231 231 233 233 234 234 236 236 234 229 223 218 216 216 216 218 220 223 224 222 218 215 214 214 215 216 217 219
286 284 281 279 276 275 273 271 269 268 267 266 264 263 262 260 259 258 259 259 260 259 258 258 258 259 260 261 261 261 261 259 257 255 253 253 255 257 257 257 256 254 252 252 251 246 240 236 233 231 231 231 232 233 235 235 233 231 229 230 231 232 232 231 231 232 233 230 225 220 218 217 218 219 220 222 225 224 219 215 214 214 214 214 216 218
291 289 286 284 281 278 276 274 272 270 269 267 266 265 263 260 258 257 258 258 258 257 257 258 258 258 258 259 261 261 260 258 255 253 250 250 252 255 256 256 255 252 250 249 247 243 237 234 232 230 228 227 226 227 230 231 230 228 226 226 228 229 228 227 227 228 230 229 226 223 220 219 219 219 220 223 225 224 219 216 214 214 214 214 215 217
293 291 288 286 283 281 278 276 274 273 271 270 268 266 264 261 258 257 256 256 255 255 255 256 256 256 255 255 256 257 258 256 254 251 246 246 249 252 254 254 253 252 250 247 243 239 235 231 229 228 227 224 222 222 224 227 228 226 224 223 224 224 224 222 223 225 227 229 228 225 222 220 219 219 220 223 225 223 218 215 214 214 213 213 214 216
293 290 287 285 283 281 279 277 275 273 271 270 268 266 264 261 259 257 255 255 254 253 252 253 253 253 252 251 251 252 254 255 253 250 245 245 248 251 252 252 251 251 249 246 241 235 232 228 226 226 225 223 220 220 222 226 227 226 224 222 221 221 220 220 221 224 227 229 229 227 223 219 218 218 220 223 224 222 217 215 214 213 212 212 214 215
292 290 287 285 283 281 278 276 274 271 269 268 266 264 263 261 259 258 257 255 254 253 251 250 250 250 250 249 249 250 252 253 252 249 244 244 248 251 252 251 250 249 249 246 241 235 230 227 225 225 224 222 219 218 221 225 227 227 225 223 221 220 219 220 221 224 227 229 229 226 222 218 217 217 219 222 223 221 218 216 214 213 212 212 213 214
297 294 292 289 286 283 281 278 275 273 270 268 265 263 262 261 259 258 257 256 255 254 252 249 248 247 247 248 248 249 250 251 250 247 243 242 245 250 252 253 251 248 246 245 240 235 229 226 224 222 221 220 219 218 220 224 227 228 226 223 221 220 220 220 221 224 226 227 225 223 220 217 216 216 218 220 222 222 220 218 217 215 213 212 212 213
303 300 298 294 291 288 285 282 279 276 273 270 267 264 262 260 259 258 256 255 255 254 252 251 248 247 246 246 246 248 249 250 249 247 242 240 242 247 250 252 251 248 245 242 237 232 227 224 222 219 217 217 217 217 217 220 224 226 226 224 222 220 220 220 221 222 222 222 221 219 217 216 215 215 216 218 221 222 222 221 220 218 215 213 212 212
305 303 300 296 293 290 287 284 281 278 275 272 270 267 265 262 260 259 257 255 254 253 252 251 250 248 247 246 246 247 248 250 249 246 242 240 240 243 247 249 249 247 244 240 235 229 224 220 218 216 214 212 213 214 213 214 217 219 221 221 222 222 222 222 221 220 219 217 217 217 217 216 215 214 215 216 219 222 224 224 223 220 217 215 213 213
306 303 301 298 295 292 289 286 283 280 277 275 273 271 269 266 264 262 260 258 255 253 252 251 250 249 248 247 247 248 248 250 249 246 243 241 240 242 243 245 246 245 243 239 233 227 220 215 214 213 211 209 208 209 210 210 210 210 212 216 219 221 222 222 220 217 216 216 217 219 219 217 215 213 213 214 217 221 224 226 225 223 220 217 216 216
306 304 302 300 297 294 290 288 285 283 280 278 276 275 273 271 269 267 265 263 260 257 253 251 249 248 248 247 248 248 249 250 248 246 244 241 241 241 242 243 243 243 243 239 232 224 218 212 209 207 205 204 205 207 209 208 207 206 207 212 217 220 221 220 217 215 215 217 220 222 221 218 215 212 211 212 214 218 221 224 225 224 222 220 219 219
306 304 302 301 299 296 293 290 288 286 285 283 281 279 277 275 273 271 269 267 265 261 258 254 252 249 248 247 247 247 248 248 247 246 245 242 241 240 240 241 242 242 241 237 230 222 215 211 208 205 202 201 203 206 209 209 208 206 206 210 214 217 218 216 214 213 215 219 222 222 220 217 213 210 209 210 212 214 216 217 217 218 217 217 217 217
307 305 303 303 301 299 296 293 292 291 289 287 285 283 280 277 275 273 271 269 266 263 261 259 256 253 250 248 247 247 246 246 246 245 244 243 241 240 239 240 240 240 239 235 227 218 212 209 208 208 206 204 204 207 209 210 209 208 208 208 210 213 215 213 211 212 217 221 222 220 217 213 210 208 207 208 210 212 213 212 211 211 211 210 209 208
306 305 304 304 304 302 300 299 298 296 293 290 287 284 280 277 275 273 271 268 266 264 262 260 258 256 254 252 250 248 246 246 245 244 244 243 242 240 239 238 239 239 238 232 224 215 209 206 206 207 207 207 208 210 211 211 211 211 211 210 210 212 213 212 211 214 219 222 222 219 213 209 206 204 205 206 209 212 214 213 211 208 208 208 209 207
306 305 306 306 306 305 304 304 302 300 297 292 288 283 280 277 274 271 268 266 264 262 261 258 256 254 253 252 251 250 249 247 246 245 243 242 242 240 238 237 237 237 235 229 221 213 209 207 207 208 208 210 211 212 213 213 214 214 213 212 212 212 212 211 211 214 218 219 217 213 209 205 203 201 202 204 208 211 214 215 213 211 209 209 211 212
309 309 309 309 309 308 308 306 304 301 298 293 288 285 282 279 275 272 269 266 263 261 258 255 252 251 250 249 249 249 249 249 249 247 244 242 240 239 237 235 234 234 231 223 216 212 211 210 210 212 214 215 216 215 214 214 213 212 212 212 211 208 206 206 208 211 214 214 211 208 205 203 201 199 199 202 206 210 213 214 214 214 213 212 212 213
312 312 312 312 311 310 308 305 303 300 297 292 289 287 285 282 278 274 270 266 264 262 258 255 252 250 248 248 247 247 248 250 250 248 244 240 238 237 234 232 231 230 227 219 213 210 210 211 213 216 219 220 219 218 217 215 212 210 209 210 210 208 205 204 205 207 209 210 208 206 204 202 200 198 199 202 207 211 212 213 212 212 213 214 214 213
315 314 313 312 311 309 306 304 302 300 297 293 290 288 287 285 281 276 271 267 265 262 259 256 252 249 248 246 246 245 244 245 245 244 242 240 238 235 231 229 229 227 224 219 215 213 212 212 214 218 220 220 220 218 217 214 211 208 206 207 209 210 210 208 206 205 206 206 205 205 204 202 200 200 201 203 206 210 212 212 210 210 210 211 212 212
316 314 313 312 311 309 307 306 304 302 299 295 293 291 289 287 283 279 273 269 265 262 259 256 251 247 246 246 245 243 242 241 239 237 237 238 237 235 231 229 226 224 221 219 218 218 218 218 218 218 217 216 216 216 216 214 210 206 203 203 204 205 206 206 205 205 205 205 205 204 204 203 202 202 202 204 206 209 211 211 210 209 208 209 209 210
317 315 314 313 312 311 310 309 306 303 300 297 295 294 293 290 286 281 276 271 266 262 259 255 251 247 245 244 244 242 240 237 234 231 231 232 233 233 230 227 224 221 220 219 220 221 223 225 225 223 219 213 208 208 211 212 209 205 202 201 200 199 199 200 201 203 205 206 205 204 203 202 202 202 203 204 205 206 207 208 208 208 208 208 208 208
319 317 316 315 314 312 311 310 308 305 301 299 298 298 296 293 289 283 278 273 268 263 258 254 250 247 245 244 243 242 240 237 231 227 224 225 226 227 225 222 219 217 218 220 222 223 225 227 229 228 223 214 207 202 203 205 206 205 202 200 198 197 196 197 199 202 204 206 206 206 204 202 201 201 201 202 202 202 203 203 204 205 206 207 207 207
322 320 319 318 316 314 312 311 309 307 304 303 302 301 299 297 293 287 281 276 270 264 258 253 249 247 245 243 241 241 240 237 232 225 219 218 218 218 216 214 213 213 214 217 219 220 222 223 224 224 223 218 210 204 201 201 201 202 201 199 198 196 196 197 199 202 204 205 206 206 205 204 204 203 202 200 199 199 200 200 201 202 204 205 206 207
325 323 322 320 317 315 314 313 312 310 308 307 305 304 303 301 298 293 287 280 273 266 259 253 249 246 243 242 240 239 238 235 229 221 216 214 212 209 207 205 205 206 208 210 210 210 211 209 210 212 214 214 211 207 202 200 198 198 197 197 197 197 197 198 200 203 204 205 205 205 205 204 204 204 202 201 200 199 199 199 199 200 202 203 205 206
327 326 324 322 320 318 317 316 314 313 312 311 309 308 306 304 302 298 293 285 277 269 262 256 250 245 242 240 239 238 236 230 221 214 212 210 206 202 200 199 199 199 199 198 197 196 194 192 194 197 202 205 207 206 204 200 197 195 193 194 196 198 199 200 202 204 205 205 205 203 202 201 201 202 202 201 200 199 198 197 198 199 201 202 204 205
Height
1411 1410 1410 1410 1410 1409 1407 1408 1408 1407 1406 1405 1405 1404 1404 1404 1403 1403 1403 1403 1403 1402 1402 1402 1402 1401 1401 1402 1402 1403 1403 1404 1404 1404 1405 1405 1406 1407 1407 1408 1408 1409 1410 1411 1412 1413 1414 1415 1417 1419 1420 1422 1423 1424 1426 1428 1430 1432 1434 1436 1438 1440 1442 1443 1446 1448 1450 1452 1453 1455 1457 1457 1458 1459 1461 1464 1468 1470 1472 1475 1477 1479 1479 1481 1482 1483
1407 1406 1406 1406 1407 1406 1403 1404 1405 1405 1403 1402 1402 1401 1401 1401 1400 1399 1399 1399 1399 1398 1398 1398 1397 1397 1397 1397 1397 1398 1398 1399 1400 1400 1401 1401 1402 1403 1403 1404 1404 1405 1406 1407 1408 1408 1409 1411 1412 1414 1416 1417 1418 1420 1421 1423 1426 1428 1430 1432 1434 1436 1438 1440 1442 1444 1446 1448 1450 1452 1453 1455 1455 1456 1458 1461 1464 1467 1470 1472 1474 1476 1477 1478 1479 1481
1403 1402 1401 1402 1403 1402 1400 1400 1400 1401 1400 1399 1398 1398 1398 1397 1396 1396 1396 1396 1395 1395 1395 1394 1394 1393 1393 1392 1392 1393 1393 1394 1395 1395 1396 1397 1398 1398 1399 1400 1400 1401 1402 1403 1403 1404 1405 1406 1408 1409 1411 1412 1414 1415 1417 1419 1422 1424 1426 1428 1430 1432 1434 1436 1438 1440 1442 1444 1446 1448 1450 1452 1453 1453 1455 1458 1461 1464 1467 1469 1472 1473 1474 1475 1476 1478
1401 1399 1398 1398 1399 1398 1397 1397 1397 1397 1397 1396 1395 1394 1394 1393 1392 1392 1391 1392 1392 1392 1391 1391 1391 1390 1389 1388 1388 1388 1388 1389 1390 1391 1391 1392 1393 1394 1395 1395 1396 1397 1398 1399 1400 1400 1401 1402 1403 1405 1406 1408 1409 1411 1412 1414 1417 1420 1422 1424 1426 1427 1429 1432 1434 1436 1438 1440 1443 1445 1447 1448 1450 1451 1453 1455 1458 1461 1464 1467 1469 1470 1471 1472 1473 1475
1399 1398 1396 1396 1395 1394 1393 1393 1393 1393 1392 1392 1391 1390 1390 1389 1388 1388 1387 1387 1387 1387 1387 1387 1387 1387 1386 1385 1385 1384 1384 1384 1385 1386 1387 1387 1388 1389 1390 1391 1392 1393 1393 1394 1396 1397 1398 1398 1399 1401 1402 1404 1405 1406 1408 1410 1413 1416 1418 1420 1422 1423 1425 1428 1430 1432 1434 1437 1439 1441 1443 1445 1447 1448 1449 1451 1455 1458 1462 1464 1466 1467 1468 1470 1471 1472
1396 1395 1394 1393 1392 1391 1389 1389 1389 1389 1388 1387 1387 1386 1386 1385 1384 1384 1383 1382 1382 1382 1382 1382 1382 1382 1382 1382 1382 1381 1381 1381 1381 1381 1382 1383 1383 1384 1385 1386 1387 1388 1389 1390 1391 1393 1393 1394 1395 1397 1398 1400 1401 1402 1404 1406 1408 1411 1413 1416 1418 1419 1421 1424 1426 1428 1430 1433 1435 1437 1439 1442 1443 1445 1447 1448 1451 1455 1459 1461 1463 1464 1466 1467 1468 1470
1392 1392 1392 1390 1389 1388 1387 1386 1385 1386 1386 1384 1383 1382 1382 1381 1381 1380 1379 1378 1378 1378 1377 1377 1377 1377 1378 1378 1378 1378 1378 1378 1377 1377 1378 1378 1379 1379 1380 1381 1382 1383 1385 1386 1387 1388 1389 1390 1391 1392 1394 1395 1397 1398 1400 1402 1404 1407 1409 1412 1414 1416 1418 1419 1422 1424 1426 1428 1431 1433 1436 1438 1440 1442 1444 1445 1448 1452 1456 1458 1460 1462 1463 1464 1465 1467
1390 1388 1388 1388 1386 1384 1383 1383 1382 1383 1383 1382 1381 1379 1378 1377 1377 1376 1375 1375 1374 1374 1373 1372 1372 1371 1372 1373 1373 1374 1374 1374 1374 1373 1373 1374 1374 1375 1375 1376 1377 1378 1380 1381 1382 1383 1385 1386 1387 1388 1389 1391 1393 1394 1396 1398 1400 1402 1405 1407 1409 1412 1414 1415 1418 1420 1423 1425 1428 1430 1432 1434 1437 1438 1440 1442 1444 1448 1452 1455 1457 1458 1460 1461 1462 1464
1390 1387 1385 1385 1384 1383 1381 1378 1378 1379 1380 1379 1378 1378 1376 1374 1373 1372 1372 1371 1371 1370 1370 1369 1368 1367 1366 1367 1368 1369 1370 1370 1370 1370 1370 1370 1370 1370 1370 1371 1373 1374 1375 1376 1377 1378 1380 1381 1383 1384 1385 1387 1389 1390 1392 1394 1396 1398 1400 1403 1405 1408 1410 1412 1413 1416 1419 1422 1424 1426 1428 1430 1433 1435 1437 1438 1441 1445 1449 1452 1454 1455 1457 1458 1460 1462
1388 1386 1383 1382 1381 1381 1379 1376 1374 1376 1377 1377 1376 1375 1374 1373 1371 1369 1368 1367 1367 1367 1367 1366 1365 1364 1363 1363 1363 1364 1364 1365 1365 1366 1366 1366 1366 1366 1366 1367 1368 1369 1370 1371 1373 1373 1375 1376 1378 1379 1381 1383 1384 1386 1388 1390 1392 1393 1396 1398 1401 1404 1407 1408 1410 1412 1415 1418 1420 1423 1424 1426 1428 1431 1433 1435 1438 1442 1445 1448 1451 1452 1454 1455 1457 1459
1386 1384 1383 1380 1379 1378 1378 1375 1373 1373 1373 1373 1372 1371 1371 1370 1369 1368 1366 1363 1363 1363 1363 1363 1362 1361 1360 1360 1359 1360 1360 1360 1360 1361 1361 1362 1362 1362 1362 1362 1363 1364 1365 1367 1368 1369 1370 1371 1373 1374 1376 1378 1380 1382 1383 1386 1388 1389 1391 1394 1397 1399 1402 1405 1408 1409 1411 1413 1416 1419 1421 1423 1425 1427 1429 1432 1435 1438 1442 1445 1447 1449 1450 1452 1454 1456
1384 1382 1381 1379 1377 1375 1374 1373 1371 1371 1371 1370 1369 1367 1366 1366 1367 1367 1364 1362 1360 1360 1359 1359 1358 1358 1358 1357 1357 1357 1357 1357 1356 1356 1357 1357 1358 1358 1358 1358 1358 1359 1360 1362 1363 1364 1365 1366 1368 1370 1372 1373 1375 1377 1379 1382 1383 1385 1387 1389 1392 1395 1398 1401 1403 1405 1407 1410 1413 1415 1417 1419 1422 1424 1426 1429 1432 1435 1438 1441 1443 1445 1447 1449 1451 1453
1382 1381 1379 1377 1374 1373 1372 1370 1369 1368 1368 1367 1366 1365 1363 1363 1364 1364 1362 1360 1358 1358 1357 1356 1355 1354 1354 1354 1354 1354 1354 1353 1353 1353 1353 1353 1353 1353 1354 1354 1354 1354 1356 1357 1358 1359 1360 1361 1363 1365 1367 1368 1370 1373 1375 1377 1379 1381 1383 1385 1388 1391 1393 1396 1399 1401 1403 1406 1408 1411 1413 1416 1418 1421 1423 1425 1428 1432 1435 1438 1440 1442 1443 1446 1448 1450
1380 1378 1377 1374 1372 1370 1369 1368 1367 1366 1364 1364 1363 1362 1361 1361 1361 1361 1359 1357 1356 1355 1355 1353 1352 1350 1350 1351 1351 1351 1350 1350 1349 1349 1349 1348 1348 1349 1350 1349 1349 1349 1351 1352 1353 1353 1355 1357 1358 1360 1361 1363 1366 1368 1370 1373 1375 1377 1379 1381 1383 1386 1389 1392 1395 1397 1400 1402 1405 1408 1409 1411 1414 1417 1420 1422 1425 1428 1431 1433 1436 1438 1440 1443 1445 1447
1378 1376 1374 1371 1369 1368 1366 1366 1364 1363 1361 1361 1360 1360 1359 1358 1358 1358 1357 1354 1353 1353 1353 1351 1348 1347 1346 1347 1347 1348 1348 1347 1346 1345 1344 1343 1344 1345 1346 1346 1345 1345 1346 1347 1348 1348 1350 1352 1353 1354 1356 1358 1360 1363 1366 1368 1370 1373 1375 1377 1379 1382 1384 1387 1390 1393 1396 1398 1400 1403 1404 1407 1410 1413 1416 1419 1422 1424 1427 1429 1432 1434 1437 1439 1442 1444
1375 1374 1371 1368 1366 1364 1363 1363 1362 1360 1358 1358 1358 1357 1357 1356 1355 1354 1354 1352 1351 1350 1350 1348 1346 1344 1342 1342 1343 1345 1345 1344 1343 1342 1341 1339 1339 1341 1343 1342 1341 1341 1341 1342 1343 1344 1346 1347 1348 1349 1351 1353 1355 1358 1361 1363 1366 1368 1370 1373 1375 1377 1380 1382 1385 1388 1390 1392 1395 1398 1399 1403 1406 1409 1413 1415 1418 1420 1423 1426 1428 1431 1433 1436 1438 1441
1372 1370 1368 1366 1363 1361 1359 1359 1358 1357 1356 1355 1355 1354 1354 1353 1352 1352 1351 1350 1349 1348 1347 1346 1344 1342 1339 1338 1339 1341 1342 1342 1340 1338 1338 1336 1335 1336 1339 1339 1338 1337 1337 1337 1338 1339 1341 1342 1343 1345 1346 1348 1350 1353 1356 1359 1361 1364 1366 1368 1370 1373 1375 1378 1381 1384 1388 1389 1390 1393 1395 1398 1403 1406 1410 1412 1414 1417 1419 1422 1424 1427 1430 1433 1435 1438
1368 1367 1365 1363 1360 1358 1357 1356 1355 1354 1353 1353 1352 1351 1351 1350 1350 1349 1348 1348 1347 1346 1344 1343 1342 1340 1338 1336 1335 1337 1340 1339 1337 1335 1335 1333 1332 1332 1335 1335 1335 1333 1333 1333 1333 1334 1336 1338 1339 1340 1341 1343 1346 1349 1352 1354 1357 1360 1362 1364 1367 1369 1371 1374 1377 1379 1382 1383 1386 1388 1391 1395 1399 1403 1406 1408 1411 1413 1416 1418 1421 1424 1427 1429 1432 1434
1363 1363 1361 1359 1356 1355 1354 1353 1352 1351 1351 1350 1349 1349 1348 1347 1347 1347 1346 1345 1344 1343 1342 1341 1339 1337 1336 1334 1333 1334 1337 1337 1335 1333 1331 1329 1328 1329 1330 1331 1331 1330 1329 1328 1328 1329 1332 1333 1334 1336 1337 1339 1341 1344 1347 1350 1353 1355 1358 1361 1363 1366 1368 1370 1373 1375 1377 1379 1382 1384 1387 1391 1396 1399 1402 1405 1408 1410 1413 1415 1417 1420 1423 1426 1429 1431
1359 1358 1356 1355 1353 1351 1350 1348 1348 1348 1348 1347 1347 1346 1345 1344 1343 1343 1342 1342 1341 1340 1339 1338 1336 1334 1333 1332 1330 1331 1333 1334 1333 1331 1328 1326 1325 1325 1326 1327 1326 1326 1326 1325 1324 1325 1327 1328 1330 1332 1333 1334 1336 1339 1343 1346 1348 1351 1354 1357 1360 1363 1365 1367 1369 1372 1373 1375 1378 1381 1384 1388 1392 1396 1399 1401 1404 1407 1408 1411 1414 1417 1420 1423 1425 1428
1356 1353 1351 1351 1350 1348 1345 1343 1343 1343 1344 1344 1344 1343 1341 1341 1340 1339 1338 1338 1338 1337 1336 1334 1332 1330 1330 1329 1328 1327 1329 1331 1331 1328 1326 1324 1322 1321 1322 1323 1323 1322 1322 1321 1321 1322 1323 1324 1326 1327 1329 1331 1333 1335 1338 1341 1343 1347 1351 1354 1357 1360 1363 1364 1365 1367 1369 1372 1375 1377 1380 1384 1388 1392 1395 1398 1400 1402 1405 1408 1411 1413 1417 1419 1422 1424
1352 1348 1346 1347 1347 1344 1342 1339 1339 1339 1340 1341 1340 1338 1338 1337 1336 1335 1334 1335 1334 1333 1332 1330 1328 1328 1328 1326 1324 1323 1326 1328 1328 1327 1325 1322 1318 1317 1319 1320 1320 1319 1318 1318 1318 1318 1319 1320 1322 1323 1325 1327 1329 1332 1334 1336 1338 1342 1346 1350 1354 1357 1360 1362 1363 1363 1365 1368 1371 1373 1377 1381 1385 1388 1391 1394 1396 1398 1401 1404 1407 1410 1413 1416 1419 1421
1348 1344 1342 1342 1341 1340 1338 1336 1335 1335 1335 1336 1335 1334 1333 1333 1333 1331 1331 1331 1330 1329 1328 1327 1325 1324 1324 1322 1320 1320 1321 1323 1325 1325 1324 1320 1316 1313 1315 1317 1318 1317 1314 1314 1315 1315 1316 1317 1318 1319 1321 1323 1326 1329 1331 1332 1334 1338 1342 1346 1350 1354 1357 1359 1359 1360 1362 1364 1367 1370 1373 1377 1381 1384 1387 1390 1392 1395 1398 1401 1404 1407 1410 1413 1416 1418
1343 1340 1338 1337 1336 1334 1333 1332 1331 1330 1331 1330 1330 1329 1328 1328 1328 1328 1327 1327 1326 1325 1324 1323 1322 1321 1319 1318 1317 1316 1316 1319 1321 1323 1322 1318 1313 1311 1312 1313 1314 1313 1311 1311 1312 1312 1313 1314 1315 1316 1318 1320 1323 1325 1328 1329 1331 1333 1337 1341 1346 1350 1354 1356 1357 1357 1359 1361 1364 1367 1370 1373 1377 1380 1383 1386 1389 1392 1394 1397 1400 1403 1407 1410 1412 1415
1339 1337 1334 1333 1332 1330 1329 1328 1327 1327 1326 1326 1325 1325 1324 1324 1324 1323 1323 1323 1322 1322 1321 1320 1318 1316 1313 1314 1313 1312 1311 1314 1318 1319 1318 1315 1312 1309 1308 1310 1311 1311 1309 1308 1308 1309 1310 1311 1312 1313 1315 1317 1319 1322 1324 1326 1328 1330 1333 1337 1342 1346 1350 1353 1354 1355 1356 1358 1361 1364 1367 1370 1373 1377 1380 1383 1386 1388 1391 1393 1396 1400 1403 1407 1409 1412
1335 1333 1331 1329 1328 1327 1326 1325 1324 1323 1323 1323 1323 1322 1322 1322 1321 1321 1319 1318 1318 1318 1318 1316 1313 1310 1309 1310 1309 1307 1307 1310 1313 1314 1315 1313 1310 1306 1304 1306 1308 1308 1307 1307 1307 1307 1307 1307 1308 1309 1311 1313 1315 1318 1321 1323 1325 1327 1329 1333 1338 1342 1346 1348 1351 1352 1354 1356 1358 1361 1363 1367 1370 1373 1376 1379 1382 1385 1388 1390 1393 1397 1400 1404 1407 1409
1330 1328 1327 1325 1324 1323 1322 1321 1320 1320 1320 1319 1319 1319 1320 1320 1319 1317 1315 1313 1314 1315 1314 1311 1308 1306 1306 1306 1304 1303 1303 1306 1308 1309 1311 1311 1308 1304 1301 1303 1304 1305 1305 1305 1304 1304 1304 1304 1305 1306 1308 1309 1311 1313 1316 1318 1321 1323 1326 1329 1333 1337 1341 1344 1347 1348 1350 1353 1355 1357 1360 1363 1366 1369 1373 1376 1379 1382 1385 1388 1390 1393 1397 1401 1404 1407
1325 1324 1322 1321 1319 1318 1317 1316 1315 1315 1315 1315 1315 1316 1317 1317 1315 1312 1308 1308 1310 1311 1309 1307 1305 1303 1302 1301 1299 1299 1300 1302 1303 1304 1307 1308 1305 1301 1298 1300 1301 1302 1302 1303 1302 1302 1302 1302 1302 1303 1304 1305 1307 1309 1311 1314 1318 1320 1323 1326 1329 1333 1336 1339 1342 1344 1347 1349 1351 1354 1357 1360 1363 1366 1369 1373 1376 1379 1381 1384 1387 1390 1394 1398 1401 1403
1320 1319 1317 1316 1314 1313 1312 1311 1310 1309 1309 1309 1309 1310 1311 1312 1310 1306 1303 1304 1307 1306 1304 1302 1301 1300 1299 1297 1296 1296 1296 1296 1297 1300 1304 1305 1301 1297 1295 1297 1298 1298 1299 1300 1300 1299 1298 1298 1298 1299 1301 1303 1304 1305 1307 1311 1314 1317 1320 1323 1326 1329 1332 1335 1338 1340 1343 1345 1348 1350 1353 1356 1359 1362 1365 1369 1373 1376 1378 1380 1383 1387 1391 1394 1397 1399
1314 1313 1311 1310 1309 1308 1307 1306 1304 1303 1303 1303 1303 1304 1305 1305 1303 1301 1299 1301 1302 1301 1299 1298 1297 1297 1296 1295 1294 1293 1290 1289 1292 1297 1301 1301 1297 1293 1293 1294 1294 1294 1296 1298 1298 1296 1293 1293 1294 1296 1298 1300 1302 1303 1304 1308 1311 1314 1318 1320 1323 1326 1328 1331 1334 1337 1339 1342 1344 1347 1350 1353 1355 1358 1362 1366 1369 1372 1375 1377 1380 1383 1387 1390 1393 1395
1309 1308 1306 1304 1303 1303 1302 1300 1299 1298 1297 1297 1297 1298 1298 1298 1297 1296 1296 1297 1296 1296 1294 1293 1293 1293 1293 1293 1291 1288 1284 1283 1287 1293 1297 1297 1293 1290 1291 1291 1290 1290 1292 1294 1294 1292 1289 1288 1289 1292 1295 1297 1299 1301 1302 1304 1307 1310 1314 1317 1320 1322 1324 1327 1330 1333 1336 1338 1341 1343 1346 1349 1352 1356 1359 1363 1366 1369 1372 1374 1377 1379 1382 1385 1388 1392
1305 1303 1301 1300 1299 1298 1297 1296 1295 1294 1293 1293 1292 1292 1292 1291 1291 1291 1291 1290 1290 1290 1290 1289 1288 1288 1288 1287 1285 1282 1279 1279 1283 1289 1293 1293 1290 1288 1288 1288 1287 1287 1288 1290 1290 1288 1286 1285 1285 1288 1292 1294 1297 1298 1300 1301 1304 1307 1310 1313 1315 1317 1320 1323 1327 1330 1333 1335 1338 1340 1343 1345 1349 1353 1356 1359 1363 1365 1368 1371 1373 1376 1378 1381 1384 1388
1300 1298 1297 1295 1294 1293 1292 1291 1290 1290 1289 1288 1288 1287 1287 1286 1286 1285 1285 1285 1284 1284 1284 1283 1283 1283 1282 1281 1280 1277 1275 1276 1279 1285 1289 1289 1288 1285 1284 1285 1284 1284 1284 1286 1287 1286 1284 1282 1282 1284 1288 1291 1293 1295 1297 1299 1301 1303 1306 1308 1311 1313 1316 1320 1324 1327 1329 1332 1334 1337 1339 1342 1346 1349 1353 1356 1359 1362 1364 1367 1369 1372 1374 1377 1380 1384
1296 1294 1292 1291 1289 1288 1287 1286 1285 1284 1284 1283 1283 1282 1282 1282 1281 1281 1280 1280 1279 1279 1278 1278 1277 1277 1277 1276 1274 1272 1271 1271 1274 1280 1285 1286 1284 1283 1281 1281 1281 1281 1282 1283 1284 1283 1282 1280 1279 1281 1284 1288 1291 1293 1294 1296 1297 1299 1302 1304 1307 1310 1313 1316 1320 1323 1325 1328 1331 1334 1337 1340 1343 1346 1350 1353 1357 1359 1361 1364 1366 1368 1371 1373 1377 1380
1292 1290 1288 1287 1286 1284 1283 1282 1281 1280 1279 1278 1277 1277 1277 1276 1276 1276 1275 1275 1274 1274 1273 1272 1272 1272 1271 1271 1269 1267 1266 1266 1270 1276 1280 1281 1280 1280 1279 1278 1277 1277 1278 1279 1280 1280 1279 1278 1277 1277 1280 1285 1288 1290 1292 1293 1294 1296 1298 1301 1304 1307 1309 1312 1315 1318 1321 1324 1328 1331 1334 1337 1340 1343 1346 1350 1353 1356 1358 1361 1363 1366 1368 1370 1373 1376
1289 1287 1285 1284 1282 1281 1279 1277 1277 1276 1274 1273 1272 1272 1272 1271 1270 1270 1270 1270 1269 1269 1268 1268 1267 1266 1266 1265 1264 1262 1261 1262 1267 1272 1274 1275 1276 1276 1276 1274 1274 1275 1276 1276 1276 1276 1276 1275 1274 1275 1278 1281 1285 1287 1289 1291 1292 1294 1296 1299 1302 1304 1307 1309 1312 1315 1318 1321 1324 1328 1331 1333 1336 1339 1342 1346 1350 1353 1356 1359 1361 1363 1366 1368 1371 1373
1287 1284 1282 1281 1279 1277 1276 1274 1272 1272 1270 1269 1268 1267 1267 1266 1265 1265 1264 1264 1264 1264 1263 1263 1262 1262 1261 1260 1259 1257 1257 1260 1264 1267 1269 1271 1272 1272 1272 1270 1270 1271 1272 1272 1272 1272 1272 1272 1272 1273 1276 1278 1280 1283 1286 1289 1291 1292 1294 1296 1299 1301 1304 1306 1308 1311 1314 1318 1321 1324 1328 1330 1333 1336 1339 1343 1348 1352 1355 1357 1359 1361 1364 1366 1368 1371
1284 1282 1279 1277 1276 1274 1272 1270 1269 1267 1266 1265 1264 1263 1262 1261 1260 1260 1259 1258 1258 1258 1258 1257 1257 1256 1255 1255 1254 1254 1254 1256 1259 1262 1264 1266 1267 1267 1267 1266 1266 1267 1268 1269 1269 1269 1268 1268 1269 1271 1273 1275 1277 1280 1283 1286 1288 1289 1291 1294 1296 1298 1301 1303 1306 1309 1313 1316 1319 1322 1325 1327 1329 1332 1336 1341 1346 1350 1353 1356 1358 1360 1362 1365 1367 1369
1281 1279 1276 1274 1272 1271 1269 1267 1265 1263 1262 1261 1260 1259 1258 1257 1256 1255 1254 1253 1253 1252 1252 1252 1251 1250 1250 1250 1250 1250 1251 1252 1253 1256 1258 1260 1262 1262 1263 1262 1262 1262 1264 1266 1266 1266 1264 1264 1265 1267 1270 1273 1275 1278 1280 1283 1285 1287 1289 1293 1295 1297 1298 1301 1303 1307 1310 1313 1316 1319 1321 1323 1325 1329 1333 1337 1342 1346 1349 1352 1354 1357 1359 1362 1365 1368
1278 1276 1273 1271 1269 1267 1265 1263 1261 1259 1258 1257 1255 1254 1253 1252 1251 1250 1249 1248 1248 1247 1246 1246 1245 1245 1244 1245 1245 1245 1246 1247 1248 1250 1252 1253 1255 1257 1258 1258 1258 1259 1261 1262 1263 1262 1261 1260 1262 1264 1267 1270 1272 1275 1278 1281 1283 1285 1287 1290 1293 1294 1296 1298 1301 1304 1307 1309 1312 1314 1317 1318 1321 1324 1328 1333 1337 1341 1344 1347 1350 1352 1354 1357 1360 1363
1276 1273 1270 1267 1265 1263 1261 1259 1257 1255 1254 1252 1251 1249 1248 1247 1246 1245 1244 1243 1243 1242 1241 1241 1241 1240 1239 1238 1238 1239 1240 1241 1242 1244 1245 1247 1248 1250 1252 1254 1255 1256 1257 1259 1259 1258 1257 1257 1259 1262 1265 1267 1270 1273 1276 1278 1280 1283 1285 1287 1288 1290 1293 1296 1299 1301 1304 1306 1308 1310 1312 1314 1317 1321 1325 1330 1334 1338 1341 1343 1346 1349 1351 1353 1354 1357
1274 1270 1267 1264 1262 1259 1257 1254 1252 1251 1249 1248 1246 1245 1243 1242 1242 1241 1240 1239 1238 1237 1237 1237 1237 1235 1234 1233 1232 1232 1233 1234 1235 1237 1238 1240 1242 1244 1247 1249 1251 1252 1254 1255 1255 1255 1255 1255 1257 1259 1262 1265 1268 1271 1273 1276 1278 1280 1282 1283 1286 1289 1293 1295 1297 1299 1301 1303 1306 1308 1309 1311 1314 1318 1322 1327 1332 1335 1338 1341 1343 1345 1348 1350 1353 1354
1270 1267 1264 1261 1258 1255 1252 1250 1248 1246 1245 1243 1241 1240 1238 1238 1237 1236 1235 1234 1233 1232 1232 1232 1232 1231 1230 1228 1227 1227 1227 1227 1228 1230 1232 1234 1236 1238 1241 1243 1246 1249 1251 1251 1251 1252 1252 1253 1255 1257 1259 1262 1266 1268 1270 1273 1275 1277 1279 1281 1283 1287 1290 1292 1294 1296 1299 1301 1303 1305 1307 1309 1312 1316 1320 1324 1329 1333 1336 1339 1341 1343 1345 1348 1350 1353
1267 1263 1260 1257 1254 1252 1249 1247 1245 1242 1241 1239 1237 1235 1233 1233 1232 1232 1231 1229 1228 1227 1227 1227 1228 1227 1226 1224 1222 1222 1222 1222 1223 1224 1226 1227 1229 1232 1235 1238 1242 1245 1247 1246 1247 1248 1250 1252 1253 1256 1258 1261 1263 1266 1268 1270 1272 1275 1277 1278 1280 1282 1284 1286 1290 1293 1297 1300 1302 1304 1306 1308 1311 1315 1318 1323 1327 1330 1333 1336 1339 1341 1343 1346 1348 1350
1264 1261 1257 1254 1252 1249 1246 1243 1241 1239 1237 1235 1232 1231 1229 1228 1228 1227 1226 1224 1223 1222 1222 1222 1223 1223 1222 1219 1218 1218 1218 1218 1219 1220 1221 1222 1224 1227 1230 1233 1237 1241 1242 1242 1242 1244 1247 1249 1251 1254 1257 1259 1261 1263 1265 1267 1269 1272 1274 1276 1278 1280 1282 1285 1288 1291 1294 1297 1300 1303 1305 1307 1310 1313 1317 1321 1324 1328 1330 1333 1336 1338 1341 1343 1346 1348
1262 1258 1255 1252 1249 1246 1243 1240 1237 1235 1232 1230 1228 1226 1225 1224 1223 1222 1221 1220 1218 1217 1217 1217 1218 1218 1216 1214 1214 1214 1214 1214 1215 1216 1217 1218 1220 1222 1226 1229 1233 1237 1239 1239 1240 1242 1244 1246 1249 1252 1255 1257 1259 1260 1262 1264 1267 1269 1272 1274 1276 1279 1282 1284 1286 1288 1292 1295 1298 1301 1303 1305 1308 1311 1314 1318 1321 1325 1328 1330 1333 1335 1338 1340 1343 1345
1260 1256 1252 1249 1246 1242 1239 1236 1233 1231 1228 1226 1224 1222 1221 1220 1219 1217 1216 1215 1214 1213 1212 1212 1212 1212 1211 1210 1210 1210 1210 1210 1210 1211 1212 1214 1216 1219 1222 1226 1230 1233 1235 1237 1239 1241 1243 1245 1247 1249 1252 1254 1256 1258 1259 1261 1263 1266 1268 1271 1273 1276 1278 1280 1283 1286 1290 1293 1296 1298 1300 1303 1306 1309 1312 1315 1319 1323 1326 1329 1331 1333 1335 1338 1340 1343
1257 1253 1250 1246 1242 1239 1235 1232 1230 1228 1225 1223 1221 1219 1217 1216 1215 1213 1212 1210 1209 1208 1208 1207 1207 1206 1205 1205 1205 1205 1205 1206 1206 1207 1208 1210 1212 1215 1219 1223 1227 1231 1233 1236 1238 1240 1242 1243 1245 1247 1248 1250 1252 1254 1256 1258 1261 1263 1265 1268 1271 1273 1275 1277 1281 1285 1288 1291 1293 1295 1298 1300 1303 1305 1309 1313 1317 1320 1324 1327 1329 1332 1334 1336 1338 1341
1255 1251 1247 1243 1240 1236 1233 1230 1227 1225 1222 1220 1217 1215 1212 1211 1210 1209 1207 1206 1205 1204 1203 1202 1202 1201 1200 1200 1200 1201 1201 1202 1203 1203 1205 1206 1208 1212 1216 1220 1224 1228 1231 1234 1237 1239 1240 1241 1243 1245 1247 1248 1249 1251 1253 1256 1258 1261 1263 1266 1268 1270 1273 1277 1280 1283 1286 1289 1291 1294 1296 1298 1299 1302 1305 1310 1314 1318 1321 1324 1327 1330 1332 1335 1337 1340
1252 1249 1245 1242 1238 1234 1231 1228 1225 1222 1219 1216 1213 1211 1208 1206 1205 1203 1202 1201 1200 1199 1197 1197 1196 1196 1196 1195 1195 1196 1197 1198 1199 1200 1201 1202 1205 1209 1212 1216 1220 1224 1227 1231 1233 1235 1237 1239 1241 1243 1245 1247 1248 1249 1251 1253 1256 1259 1262 1264 1266 1268 1271 1275 1277 1281 1283 1287 1290 1292 1294 1297 1298 1301 1304 1307 1311 1315 1318 1322 1325 1328 1330 1333 1336 1339
1250 1247 1243 1240 1236 1232 1229 1226 1223 1220 1216 1213 1210 1207 1204 1202 1200 1198 1197 1196 1195 1193 1192 1192 1191 1191 1191 1191 1191 1192 1193 1193 1194 1195 1197 1199 1202 1205 1209 1212 1216 1219 1223 1226 1229 1231 1233 1235 1238 1241 1242 1244 1246 1247 1248 1250 1253 1256 1259 1262 1264 1267 1270 1272 1275 1278 1282 1285 1288 1290 1293 1294 1297 1299 1302 1305 1309 1313 1317 1320 1323 1326 1328 1331 1334 1338